Terminal Aerodrome Forecast
Issued by NWS

Home | Current Version | Previous Version | Text Only | Print | Product List | Glossary On
Versions: 1 2 3 4 5 6 7 8 9 10 11 12 13
000
FTUS46 KSEW 261100
TAFPAE
TAF
KPAE 261122Z 2612/2712 VRB03KT P6SM BKN250
     FM261600 15008KT P6SM SCT070 OVC150
     FM262200 15012KT P6SM SCT040 OVC070
     FM270400 17010KT P6SM -RA SCT025 OVC040
     FM270800 17010KT P6SM SCT035 OVC050=

USA.gov is the U.S. government's official web portal to all federal, state and local government web resources and services.